Terminal Aerodrome Forecast
Issued by NWS

Home | Current Version | Previous Version | Text Only | Print | Product List | Glossary Off
Versions: 1 2 3 4 5 6 7 8 9 10 11 12 13 14 15 16 17 18 19 20 21 22 23 24 25 26 27 28 29 30 31 32 33 34

000
FTUS43 KGRB 152000 AAC
TAFRHI
TAF AMD
KRHI 152040Z 1521/1618 15007KT 1/4SM FG OVC002
      TEMPO 1521/1524 1SM BR OVC003
     FM160000 09003KT 2SM -RA BR OVC006
     FM160500 35009KT 2SM -RASN BR OVC005
     FM160700 35009KT 2SM -SN BR OVC005=

USA.gov is the U.S. government's official web portal to all federal, state and local government web resources and services.